This is the latest recevied weather packets stored in our database for station/object WX5HOT. If no packets are shown the sender has not sent any weather packets the latest 10 day(s).
| Time | Temp. | Humidity | Pressure | Rain* | Wind** | Luminosity | Snow |
|---|---|---|---|---|---|---|---|
| 1778138360 | 10° C | 89% | 1066.5 hPa | 0 mm | - | 0 W/m² | - |
| 1778138057 | 10° C | 89% | 1066.4 hPa | 0 mm | - | 0 W/m² | - |
| 1778137753 | 10° C | 89% | 1066.6 hPa | 0 mm | - | 0 W/m² | - |
| 1778137451 | 10° C | 89% | 1066.8 hPa | 0 mm | - | 0 W/m² | - |
| 1778137147 | 10° C | 88% | 1066.9 hPa | 0 mm | - | 0 W/m² | - |
| 1778136844 | 10° C | 89% | 1066.9 hPa | 0 mm | - | 0 W/m² | - |
| 1778136541 | 10° C | 90% | 1066.9 hPa | 0 mm | - | 0 W/m² | - |
| 1778136239 | 10° C | 92% | 1067 hPa | 0 mm | - | 0 W/m² | - |
| 1778135937 | 10° C | 92% | 1067.2 hPa | 0 mm | - | 0 W/m² | - |
| 1778135633 | 10° C | 92% | 1067.1 hPa | 0 mm | - | 0 W/m² | - |
| 1778135331 | 10.56° C | 90% | 1067.2 hPa | 0 mm | - | 0 W/m² | - |
| 1778135027 | 10.56° C | 88% | 1067.2 hPa | 0 mm | - | 0 W/m² | - |
| 1778134725 | 10° C | 89% | 1067.1 hPa | 0 mm | - | 0 W/m² | - |
| 1778134422 | 10° C | 91% | 1067.1 hPa | 0 mm | - | 0 W/m² | - |
| 1778134121 | 10° C | 97% | 1067.1 hPa | 0 mm | - | 0 W/m² | - |
| 1778133817 | 10° C | 99% | 1067 hPa | 0 mm | - | 0 W/m² | - |
| 1778133514 | 10° C | 99% | 1067.1 hPa | 0 mm | - | 0 W/m² | - |
| 1778133209 | 10° C | 99% | 1067.1 hPa | 0 mm | - | 0 W/m² | - |
| 1778132906 | 10° C | 99% | 1067.2 hPa | 0 mm | - | 0 W/m² | - |
| 1778132602 | 10° C | 99% | 1067.1 hPa | 0 mm | - | 0 W/m² | - |
| 1778132300 | 10° C | 99% | 1067.1 hPa | 0 mm | - | 0 W/m² | - |
| 1778131997 | 10° C | 99% | 1067.2 hPa | 0 mm | - | 0 W/m² | - |
| 1778131696 | 10° C | 99% | 1067.3 hPa | 0 mm | - | 0 W/m² | - |
| 1778131392 | 10° C | 99% | 1067.3 hPa | 0 mm | - | 0 W/m² | - |
| 1778131090 | 10° C | 99% | 1067.3 hPa | 0 mm | - | 0 W/m² | - |
* Rain latest hour (hover to see other rain measurements)
** Current wind speed in m/s (hover to see current wind gust speed)